User: anonymous   Login
Location: Unspecified
(0.0000°N, 0.0000°E)
Time: 20:41:21
(UTC+00:00)
Language:

PAYLOAD C - Orbit

View from above orbital plane
View from above orbital plane
View from above satellite
View from above satellite

Ground track
Ground track

The orbit data is extracted from the following two-line orbital elements,

1 27057U 01058C   17172.70452602 -.00000011 +00000-0 -12071-3 0  9997
2 27057 082.5421 155.4417 0000999 030.0019 330.1129 12.61541699712959
Epoch (UTC): 21 June 2017 16:54:31
Eccentricity: 0.0000999
inclination: 82.5421°
perigee height: 1416 km
apogee height: 1417 km
right ascension of ascending node: 155.4417°
argument of perigee: 30.0019°
revolutions per day: 12.61541699
mean anomaly at epoch: 330.1129°
orbit number at epoch: 71295

The dashed part of the orbit path shows where the satellite is in the earth's shadow,  

DLR